Simultaneous Nadir Overpasses (SNOs) Predictions

Prediction of SNOs between AQUA and METOP-C Satellite Orbit:

Table of predicted SNOs for the next 14.0 days since TLE Epoch: 8/13/2022
Index Date (AQUA) Time (AQUA) Lat,Lon (AQUA) SZA (AQUA ) Date (METOP-C) Time (METOP-C) Lat,Lon (METOP-C) SZA (METOP-C ) Distance(km) Time Diff (sec)
1 08/13/2022 19:00:56 -74.02, 69.49 120.45 08/13/2022 19:00:15 -74.00, 69.55 120.46 2.69 41
2 08/13/2022 19:50:24 74.07,-123.00 59.62 08/13/2022 19:50:54 74.08,-122.93 59.62 2.30 30
3 08/16/2022 13:45:04 73.99, -31.47 60.38 08/16/2022 13:43:54 74.00, -31.37 60.40 3.28 70
4 08/16/2022 14:34:30 -74.03, 136.09 119.57 08/16/2022 14:34:34 -74.05, 136.08 119.55 2.42 4
5 08/16/2022 15:24:00 74.19, -56.65 60.62 08/16/2022 15:25:12 74.17, -56.28 60.58 11.47 72
6 08/19/2022 09:18:39 74.02, 35.07 61.32 08/19/2022 09:18:14 74.04, 35.14 61.34 3.01 25
7 08/19/2022 10:08:06 -74.11,-157.47 118.59 08/19/2022 10:08:54 -74.09,-157.41 118.61 2.62 48
8 08/22/2022 04:02:46 -74.00, -65.90 117.79 08/22/2022 04:01:55 -74.00, -65.88 117.79 0.71 51
9 08/22/2022 04:52:14 74.08, 101.57 62.30 08/22/2022 04:52:34 74.08, 101.64 62.30 2.16 20
10 08/24/2022 22:46:50 73.84,-166.56 62.98 08/24/2022 22:45:38 73.79,-167.31 62.96 24.22 72
11 08/24/2022 23:36:19 -74.02, 0.68 116.82 08/24/2022 23:36:14 -74.03, 0.61 116.80 2.61 5



Historial Predications of SNOs between AQUA and METOP-C
